Home > Weather > Timmins > Past weeks

Flag for Canada Weather for the Past 2 Weeks in Timmins, Ontario, Canada

Now
36 °F

Passing clouds.


Feels Like: 36 °F
Forecast: 39 / 73 °F
Wind: 2 mph from North

Location: Timmins

Current Time: May 6, 2016 at 5:48:37 AM

Latest Report: May 6, 2016 at 5:00 AM


Visibility: 15 mi

Pressure: 29.86 "Hg

Humidity: 93%

Dew Point: 34 °F

Location of TimminsLocation

Historic Weather in Timmins — Graph

°F

Timmins Temperature Yesterday

Maximum temperature yesterday: 64 °F (at 4:00 PM)
Minimum temperature yesterday: 32 °F (at 6:00 AM)
Average temperature yesterday: 44 °F

High & Low Weather Summary for the Past Weeks

 TemperatureHumidityPressure
High64 °F (May 5, 4:00 PM)100% (May 4, 4:00 AM)30.34 "Hg (May 4, 4:00 AM)
Low14 °F (Apr 23, 6:00 AM)22% (Apr 24, 4:00 PM)29.61 "Hg (May 3, 6:00 PM)
Average38 °F61%30.07 "Hg
* Reported Apr 21 4:00 AM — May 6 4:00 AM, Timmins, Weather by CustomWeather, © 2016

Note: Actual official high and low records may vary slightly from our data, if they occured in-between our weather recording intervals... More about our weather records

Advertising

Timmins Weather History for the Previous 24 Hours

Scroll right to see more
 ConditionsComfort  
Time TempWeatherWind HumidityBarometerVisibility
4:00 AM
Fri, May 6
39 °FPassing clouds.3 mph87%29.86 "Hg15 mi
3:00 AM43 °FPassing clouds.6 mph76%29.86 "Hg15 mi
2:00 AM41 °FPassing clouds.3 mph87%29.87 "Hg15 mi
1:00 AM48 °FPassing clouds.5 mph71%29.86 "Hg15 mi
12:00 AM46 °FMostly cloudy.2 mph82%29.86 "Hg15 mi
11:00 PM
Thu, May 5
48 °FOvercast.3 mph76%29.86 "Hg15 mi
10:00 PM48 °FMostly cloudy.5 mph76%29.86 "Hg15 mi
9:00 PM52 °FPartly sunny.3 mph62%29.85 "Hg15 mi
8:00 PM61 °FPartly sunny.3 mph45%29.83 "Hg14 mi
7:00 PM64 °FPartly sunny.6 mph43%29.83 "Hg15 mi
6:00 PM64 °FPartly sunny.9 mph40%29.85 "Hg15 mi
5:00 PM64 °FScattered clouds.10 mph40%29.86 "Hg15 mi
4:00 PM64 °FScattered clouds.12 mph40%29.87 "Hg15 mi
3:00 PM61 °FScattered clouds.7 mph52%29.90 "Hg15 mi
2:00 PM55 °FPassing clouds.8 mph59%29.93 "Hg15 mi
1:00 PM50 °FPassing clouds.7 mph71%29.95 "Hg15 mi
12:00 PM45 °FBroken clouds.5 mph76%29.98 "Hg15 mi
11:00 AM39 °FPartly sunny.2 mph87%30.00 "Hg15 mi
10:00 AM36 °FLow clouds.3 mph93%30.00 "Hg8 mi
9:45 AM36 °FDrizzle. Fog.3 mph93%30.01 "Hg6 mi
9:00 AM34 °FDrizzle. Fog.No wind93%30.01 "Hg4 mi
8:00 AM32 °FDrizzle. Ice fog.6 mph100%30.01 "Hg1 mi
7:46 AM32 °FDrizzle. Ice fog.6 mph100%30.01 "Hg3 mi
7:00 AM32 °FLight freezing rain. Ice fog.7 mph100%30.00 "Hg1 mi
6:50 AM32 °FIce fog.7 mph100%30.00 "Hg1 mi
6:00 AM32 °FFog.5 mph100%29.98 "Hg1 mi
5:00 AM34 °FFog.3 mph93%29.98 "Hg1 mi
Weather by CustomWeather, © 2016

See weather overviewHow to use our weather pages